www.pogodaiklimat.ru
ПОГОДА в Уолнат-Ридже
Время
и дата
02:56 27.09
03:56 27.09
04:56 27.09
05:56 27.09
06:56 27.09
07:56 27.09
08:56 27.09
09:56 27.09
10:56 27.09
11:56 27.09
12:56 27.09
13:56 27.09
14:56 27.09
15:56 27.09
16:56 27.09
17:56 27.09
18:56 27.09
19:56 27.09
20:56 27.09
21:56 27.09
22:56 27.09
23:56 27.09
00:56 28.09
01:56 28.09
02:56 28.09
03:56 28.09
04:56 28.09
05:56 28.09
06:56 28.09
07:56 28.09
08:56 28.09
09:56 28.09
10:56 28.09
11:56 28.09
12:56 28.09
13:56 28.09
14:56 28.09
15:56 28.09
16:56 28.09
17:56 28.09
18:56 28.09
19:56 28.09
20:56 28.09
21:56 28.09
22:56 28.09
23:56 28.09
00:56 29.09
01:56 29.09
Ветер
(напр.,м/с)
Видим. Явления Облачность Т
(С)
Тd
(С)
f
(%)
Тe
(С)
Тes
(С)
Комфортность P
(гПа)
Po
(гПа)
Тmin
(С)
Tmax
(С)
R
(мм)
R24
(мм)
S
(см)
СЗ 2 16 км ясно +8.9 +6.7 86 +7 +7 1019.9 1017.7
штиль 0 16 км ясно +8.9 +6.1 83 +8 +8 1020.3 1018.0
ЮЗ 3 16 км ясно +7.8 +6.7 93 +5 +5 1020.6 1018.4
З 3 16 км ясно +8.9 +6.1 83 +6 +6 1021.2 1019.0 +7.8 +12.8
З 3 16 км ясно +11.1 +6.7 74 +9 +10 1021.8 1019.4
штиль 0 16 км ясно +13.9 +8.3 69 +14 +17 1022.4 1020.1
З 2 16 км ясно +19.4 +7.8 47 +21 +26 комфорт 1022.8 1020.4
З 3 16 км ясно +22.8 +6.1 34 +23 +31 комфорт 1022.8 1020.7
СЗ 3 16 км ясно +23.9 +5.0 29 +24 +33 комфорт 1022.5 1020.4
СЗ 4 16 км ясно +25.6 +6.1 29 +25 +33 комфорт 1022.2 1020.1 +9.4 +25.6
СЗ 3 16 км ясно +26.1 +6.1 28 +26 +35 жарко 1021.4 1019.0
С 4 16 км ясно +26.7 +7.2 29 +26 +33 жарко 1020.7 1018.4
СВ 2 16 км ясно +26.7 +7.2 29 +26 +32 жарко 1020.4 1018.0
С 4 16 км ясно +26.1 +7.2 30 +26 +28 жарко 1020.3 1018.0
СВ 2 16 км ясно +25.6 +7.8 32 +26 +26 жарко 1020.5 1018.0
СВ 4 16 км ясно +21.1 +10.0 49 +23 +23 комфорт 1020.7 1018.4 +21.1 +26.7
штиль 0 16 км ясно +17.8 +9.4 58 +18 +18 1021.1 1018.7
СЗ 2 16 км ясно +17.2 +8.9 58 +18 +18 1021.8 1019.4
штиль 0 16 км ясно +16.1 +9.4 64 +16 +16 1022.8 1020.4
СВ 4 16 км ясно +14.4 +9.4 72 +13 +13 1023.4 1021.1
СВ 2 16 км ясно +13.9 +8.9 72 +13 +13 1023.8 1021.7
СЗ 2 16 км ясно +12.2 +8.3 77 +11 +11 1024.2 1022.1 +12.2 +21.1
С 4 16 км ясно +11.1 +8.3 83 +9 +9 1024.6 1022.4
С 3 16 км ясно +11.7 +7.8 77 +10 +10 1025.1 1022.8
С 3 16 км ясно +12.2 +7.8 74 +11 +11 1025.3 1023.1
С 3 16 км ясно +11.1 +7.2 77 +9 +9 1025.7 1023.4
С 3 16 км ясно +10.0 +7.2 83 +8 +8 1026.6 1024.4
С 3 16 км ясно +9.4 +6.7 83 +7 +7 1027.4 1025.1 +8.9 +12.8
СВ 4 6 км мгла ясно +12.2 +7.8 74 +10 +11 1027.9 1025.5
СВ 5 16 км ясно +15.0 +7.8 62 +14 +15 1028.2 1025.8
СВ 4 16 км ясно +17.8 +7.2 50 +18 +21 1028.7 1026.5
СВ 4
{7}
16 км ясно +20.6 +7.2 42 +22 +28 комфорт 1029.0 1026.5
СВ 7
{9}
16 км ясно +21.1 +6.1 38 +22 +25 комфорт 1028.8 1026.5
СВ 7
{9}
13 км ясно +22.2 +5.6 34 +23 +26 комфорт 1028.4 1026.1 +9.4 +22.2
СВ 4
{9}
16 км ясно +22.2 +4.4 31 +22 +30 комфорт 1027.7 1025.5
СВ 5
{8}
16 км ясно +22.8 +3.9 29 +23 +28 комфорт 1027.1 1024.8
СВ 6 16 км ясно +23.3 +4.4 29 +23 +26 комфорт 1026.7 1024.4
СВ 5 16 км ясно +22.2 +2.8 28 +22 +24 комфорт 1026.5 1024.1
СВ 5 16 км ясно +21.1 +2.2 29 +21 +21 комфорт 1026.5 1024.1
СВ 4 16 км ясно +17.2 +3.3 39 +17 +17 1027.0 1024.8 +17.2 +23.3
СВ 4 16 км ясно +12.8 +5.0 59 +11 +11 1027.4 1024.8
СВ 3 16 км ясно +11.7 +5.6 66 +10 +10 1028.2 1025.8
СВ 4 16 км ясно +11.1 +5.6 69 +9 +9 1028.6 1026.1
С 3 16 км ясно +10.6 +5.0 68 +9 +9 1029.0 1026.5
С 3 16 км ясно +10.0 +5.0 71 +8 +8 1029.2 1026.8
С 3 16 км ясно +8.9 +5.6 80 +6 +6 1028.9 1026.5 +8.9 +16.7
С 4 16 км ясно +9.4 +5.6 77 +7 +7 1028.9 1026.5
С 3 16 км ясно +8.3 +5.0 80 +6 +6 1028.9 1026.5
Местоположение метеостанции Walnut Ridge Regional Airport: широта 39.4700 долгота -76.1700 высота над уровнем моря 18 м.
В архиве по умолчанию представлена погода в Уолнат-Ридже за последние 1-2 суток. Обновление информации о фактической погоде в базе происходит ежечасно! Архивные данные за месяц целиком и за предыдущие месяцы Вы можете получить, выбрав интересующий диапазон дат из раскрывающегося списка и нажав кнопку "Ввод!".
Внимание! Архив погоды МЕТАР в базе сайта по станциям, не включенным в климатический монитор, хранится не более 60 дней. Нет смысла пытаться выбрать более раннюю дату.
*Определитесь, кто Вы:
Внимание! Время в таблицах - местное (без учета летнего времени). Для получения всемирного времени необходимо вычесть поправку, которая равна -6 ч.
Смотрите также архив погоды в соседних городах и на ближайших метеорологических станциях:
Партнеры нашего сайта:      
Пояснения к столбцам:
  • Ветер - указаны скорость ветра в м/с - средняя за 10 мин, порывы в срок и между сроками (в фигурных скобках) и направление, откуда дует ветер: С - северный,
  • СВ - северо-восточный, В - восточный, ЮВ - юго-восточный, Ю - южный, ЮЗ - юго-западный, З - западный, СЗ - северо-западный.
  • Видимость - горизонтальная дальность видимости в метрах или километрах. При видимости от 1 до 10 км при отсутствии осадков обычно наблюдается дымка, при ухудшении видимости до 1 км и менее - туман. В сухую погоду видимость может ухудшаться дымом, пылью или мглою.
  • Явления - указаны атмосферные явления, наблюдавшиеся в срок или в последний час перед сроком; фигурными скобками обозначены явления, наблюдавшиеся между сроками (за 1-3 часа до срока); квадратными скобками обозначены град или гололедные отложения с указанием их диаметра в мм.
  • Облачность - указаны через наклонную черту общая и нижняя облачность в баллах и высота нижней границы облаков в метрах; квадратными скобками обозначены формы облаков: Ci - перистые, Cs - перисто-слоистые, Cc - перисто-кучевые, Ac - высококучевые, As - высокослоистые, Sc - слоисто-кучевые, Ns - слоисто-дождевые, Cu - кучевые, Cb - кучево-дождевые. Подробнее классификацию облаков см. в Атласе облаков (PDF).
  • T - Температура воздуха - температура, измеренная на высоте 2 м над землей.
  • Td - Температура точки росы - температура, при понижении до которой содержащийся в воздухе водяной пар достигнет насыщения.
  • f - Относительная влажность воздуха - влажноcть воздуха, измеренная на высоте 2 м над землей.
  • Te - Эффективная температура - температура, которую ощущает одетый по сезону человек в тени. Характеристика душности погоды. При расчете учитывается влияние влажности воздуха и скорости ветра на теплоощущения человека.
  • Tes - Эффективная температура на солнце - температура, которую ощущает человек, с поправкой на солнечный нагрев. Характеристика знойности погоды. Зависит от высоты солнца над горизонтом, облачности и скорости ветра. Ночью, в пасмурную погоду, а также при ветре 12 м/с и более поправка равна нулю.
  • P - Атмосферное давление - приведенное к уровню моря атмосферное давление.
  • Po - Атмосферное давление - измеренное на уровне метеостанции атмосферное давление.
  • Tmin - Минимальная температура - минимум температуры воздуха на высоте 2 м над землей.
  • Tmax - Максимальная температура - максимум температуры воздуха на высоте 2 м над землей.
  • R - Количество осадков - Количество выпавших осадков за период времени, мм. При наведении курсора мыши на число - период времени, за который выпало указанное количество осадков.
  • R24 - Количество осадков - Количество выпавших осадков за 24 часа, мм.
  • S - Снежный покров - Высота снежного покрова, см. При наведении курсора мыши на число - состояние снежного покрова и степень покрытия местности в баллах.